Time,TemperatureF,DewpointF,PressureIn,WindDirection,WindDirectionDegrees,WindSpeedMPH,WindSpeedGustMPH,Humidity,HourlyPrecipIn,Conditions,Clouds,dailyrainin,SoftwareType,DateUTC
2013-01-02 06:22:00,69.0,65.0,30.05,East,87,9.0,23.0,88,0.02,,,1.10,,2013-01-02 16:22:00,
2013-01-02 06:33:00,68.0,65.0,30.05,ENE,68,8.0,13.0,89,0.01,,,1.10,,2013-01-02 16:33:00,
2013-01-02 06:43:00,68.0,65.0,30.05,ENE,68,8.0,13.0,89,0.01,,,1.10,,2013-01-02 16:43:00,
2013-01-02 06:53:00,69.0,65.0,30.05,East,87,11.0,19.0,88,0.00,,,1.10,,2013-01-02 16:53:00,
2013-01-02 07:02:00,68.0,65.0,30.05,ENE,62,8.0,15.0,89,0.02,,,1.12,,2013-01-02 17:02:00,
2013-01-02 07:12:00,68.0,65.0,30.05,ENE,62,8.0,15.0,89,0.02,,,1.12,,2013-01-02 17:12:00,
2013-01-02 07:22:00,68.0,65.0,30.05,NE,49,12.0,21.0,89,0.04,,,1.14,,2013-01-02 17:22:00,
2013-01-02 07:33:00,68.0,65.0,30.06,NE,49,10.0,20.0,89,0.04,,,1.14,,2013-01-02 17:33:00,
2013-01-02 07:42:00,68.0,65.0,30.06,NE,49,10.0,20.0,89,0.04,,,1.14,,2013-01-02 17:42:00,
2013-01-02 07:53:00,68.0,65.0,30.05,NE,42,10.0,22.0,89,0.04,,,1.14,,2013-01-02 17:53:00,
2013-01-02 08:02:00,68.0,65.0,30.05,NNE,33,10.0,19.0,89,0.02,,,1.14,,2013-01-02 18:02:00,
2013-01-02 08:12:00,68.0,65.0,30.05,NNE,33,10.0,19.0,89,0.02,,,1.14,,2013-01-02 18:12:00,
2013-01-02 08:22:00,68.0,65.0,30.05,East,90,9.0,26.0,89,0.02,,,1.16,,2013-01-02 18:22:00,
2013-01-02 08:32:00,69.0,66.0,30.06,ENE,58,9.0,21.0,89,0.02,,,1.16,,2013-01-02 18:32:00,
2013-01-02 08:42:00,69.0,66.0,30.06,ENE,58,9.0,21.0,89,0.02,,,1.16,,2013-01-02 18:42:00,
2013-01-02 08:53:00,68.0,65.0,30.06,NNE,26,8.0,24.0,90,0.04,,,1.18,,2013-01-02 18:53:00,
2013-01-02 09:02:00,69.0,66.0,30.06,ENE,75,9.0,15.0,90,0.06,,,1.20,,2013-01-02 19:02:00,
2013-01-02 09:12:00,69.0,66.0,30.06,ENE,75,9.0,15.0,90,0.06,,,1.20,,2013-01-02 19:12:00,
2013-01-02 09:22:00,69.0,66.0,30.08,NE,38,7.0,23.0,89,0.05,,,1.21,,2013-01-02 19:22:00,
2013-01-02 09:32:00,69.0,66.0,30.09,East,96,14.0,27.0,89,0.06,,,1.22,,2013-01-02 19:32:00,
2013-01-02 09:42:00,69.0,66.0,30.09,East,96,14.0,27.0,89,0.06,,,1.22,,2013-01-02 19:42:00,
2013-01-02 09:52:00,69.0,66.0,30.09,NE,51,10.0,19.0,89,0.04,,,1.22,,2013-01-02 19:52:00,
2013-01-02 10:02:00,69.0,66.0,30.09,NE,42,9.0,22.0,89,0.03,,,1.23,,2013-01-02 20:02:00,
2013-01-02 10:11:00,69.0,66.0,30.09,NE,42,9.0,22.0,89,0.03,,,1.23,,2013-01-02 20:11:00,
2013-01-02 10:22:00,69.0,65.0,30.08,NE,53,11.0,22.0,88,0.04,,,1.25,,2013-01-02 20:22:00,
2013-01-02 10:32:00,70.0,66.0,30.08,ENE,59,9.0,19.0,88,0.04,,,1.26,,2013-01-02 20:32:00,
2013-01-02 10:42:00,70.0,66.0,30.08,ENE,59,9.0,19.0,88,0.04,,,1.26,,2013-01-02 20:42:00,
2013-01-02 10:53:00,70.0,66.0,30.09,NE,43,9.0,27.0,87,0.04,,,1.26,,2013-01-02 20:53:00,
2013-01-02 11:02:00,70.0,66.0,30.08,North,9,8.0,19.0,88,0.03,,,1.26,,2013-01-02 21:02:00,
2013-01-02 11:12:00,70.0,66.0,30.08,North,9,8.0,19.0,88,0.03,,,1.26,,2013-01-02 21:12:00,
2013-01-02 11:22:00,70.0,66.0,30.08,North,11,6.0,25.0,88,0.02,,,1.26,,2013-01-02 21:22:00,
2013-01-02 11:32:00,69.0,66.0,30.08,ENE,77,9.0,24.0,90,0.04,,,1.29,,2013-01-02 21:32:00,
2013-01-02 11:42:00,69.0,66.0,30.08,ENE,77,9.0,24.0,90,0.04,,,1.29,,2013-01-02 21:42:00,
2013-01-02 11:52:00,69.0,66.0,30.07,East,89,8.0,19.0,90,0.06,,,1.31,,2013-01-02 21:52:00,
2013-01-02 12:02:00,69.0,66.0,30.06,ENE,57,7.0,15.0,90,0.08,,,1.33,,2013-01-02 22:02:00,
2013-01-02 12:12:00,69.0,66.0,30.06,ENE,57,7.0,15.0,90,0.08,,,1.33,,2013-01-02 22:12:00,
2013-01-02 12:22:00,70.0,66.0,30.05,NE,42,13.0,23.0,88,0.09,,,1.31,,2013-01-02 22:22:00,
2013-01-02 12:32:00,69.0,66.0,30.05,NE,56,10.0,19.0,90,0.09,,,1.34,,2013-01-02 22:32:00,
2013-01-02 12:42:00,69.0,66.0,30.05,NE,56,10.0,19.0,90,0.09,,,1.34,,2013-01-02 22:42:00,
2013-01-02 12:52:00,69.0,66.0,30.05,ENE,63,6.0,15.0,90,0.11,,,1.38,,2013-01-02 22:52:00,
2013-01-02 13:02:00,69.0,66.0,30.03,North,9,5.0,23.0,89,0.10,,,1.39,,2013-01-02 23:02:00,
2013-01-02 13:12:00,69.0,66.0,30.03,East,83,10.0,22.0,89,0.08,,,1.39,,2013-01-02 23:12:00,
2013-01-02 13:22:00,69.0,66.0,30.03,East,83,10.0,22.0,89,0.08,,,1.39,,2013-01-02 23:22:00,
2013-01-02 13:32:00,70.0,67.0,30.02,ENE,78,12.0,23.0,89,0.08,,,1.42,,2013-01-02 23:32:00,
2013-01-02 13:42:00,70.0,67.0,30.02,ENE,78,12.0,23.0,89,0.08,,,1.42,,2013-01-02 23:42:00,
2013-01-02 13:52:00,70.0,67.0,30.01,North,360,3.0,15.0,89,0.07,,,1.45,,2013-01-02 23:52:00,
2013-01-02 14:02:00,69.0,66.0,30.00,East,87,7.0,17.0,89,0.11,,,1.50,,2013-01-03 00:02:00,
2013-01-02 14:12:00,69.0,66.0,30.00,East,87,7.0,17.0,89,0.11,,,1.50,,2013-01-03 00:12:00,
2013-01-02 14:22:00,70.0,67.0,29.99,ENE,64,11.0,22.0,89,0.13,,,1.51,,2013-01-03 00:22:00,
2013-01-02 14:34:00,70.0,66.0,30.00,NE,40,8.0,21.0,88,0.11,,,1.52,,2013-01-03 00:34:00,
2013-01-02 14:42:00,70.0,66.0,30.00,NE,40,8.0,21.0,88,0.11,,,1.52,,2013-01-03 00:42:00,
2013-01-02 14:52:00,70.0,67.0,29.98,East,87,9.0,18.0,89,0.09,,,1.53,,2013-01-03 00:52:00,
2013-01-02 15:02:00,70.0,67.0,29.99,NE,49,10.0,19.0,90,0.06,,,1.55,,2013-01-03 01:02:00,
2013-01-02 15:11:00,70.0,67.0,29.99,NE,49,10.0,19.0,90,0.06,,,1.55,,2013-01-03 01:11:00,
2013-01-02 15:22:00,69.0,66.0,29.99,NNE,26,9.0,25.0,89,0.05,,,1.53,,2013-01-03 01:22:00,
2013-01-02 15:32:00,70.0,66.0,29.98,ENE,76,12.0,23.0,88,0.05,,,1.54,,2013-01-03 01:32:00,
2013-01-02 15:42:00,70.0,66.0,29.98,ENE,76,12.0,23.0,88,0.05,,,1.54,,2013-01-03 01:42:00,
2013-01-02 15:52:00,70.0,66.0,29.98,ENE,64,10.0,24.0,88,0.04,,,1.54,,2013-01-03 01:52:00,
2013-01-02 16:01:00,70.0,66.0,29.99,ENE,60,9.0,27.0,87,0.02,,,1.54,,2013-01-03 02:01:00,
2013-01-02 16:11:00,70.0,66.0,29.99,ENE,60,9.0,27.0,87,0.02,,,1.54,,2013-01-03 02:11:00,
2013-01-02 16:22:00,70.0,66.0,29.99,NE,55,10.0,16.0,87,0.01,,,1.44,,2013-01-03 02:22:00,
2013-01-02 16:32:00,70.0,67.0,29.98,East,90,6.0,16.0,89,0.01,,,1.45,,2013-01-03 02:32:00,
2013-01-02 16:42:00,70.0,67.0,29.98,East,90,6.0,16.0,89,0.01,,,1.45,,2013-01-03 02:42:00,
2013-01-02 16:52:00,70.0,67.0,29.98,East,90,6.0,16.0,89,0.01,,,1.45,,2013-01-03 02:52:00,
2013-01-02 17:02:00,70.0,66.0,29.99,NE,50,10.0,24.0,88,0.02,,,1.46,,2013-01-03 03:02:00,
2013-01-02 17:12:00,69.0,66.0,30.00,ENE,74,2.0,14.0,89,0.02,,,1.35,,2013-01-03 03:12:00,
2013-01-02 17:22:00,69.0,66.0,30.00,ENE,74,2.0,14.0,89,0.02,,,1.35,,2013-01-03 03:22:00,
2013-01-02 17:32:00,69.0,66.0,30.00,North,355,5.0,24.0,90,0.03,,,1.37,,2013-01-03 03:32:00,
2013-01-02 17:45:00,69.0,66.0,30.00,North,355,5.0,24.0,90,0.03,,,1.37,,2013-01-03 03:45:00,
2013-01-02 17:52:00,69.0,66.0,30.00,ENE,78,8.0,15.0,90,0.04,,,1.38,,2013-01-03 03:52:00,
2013-01-02 18:01:00,69.0,66.0,30.00,ENE,61,14.0,23.0,89,0.05,,,1.40,,2013-01-03 04:01:00,
2013-01-02 18:12:00,69.0,66.0,30.00,ENE,61,14.0,23.0,89,0.05,,,1.40,,2013-01-03 04:12:00,
2013-01-02 18:22:00,69.0,66.0,30.01,East,90,7.0,16.0,90,0.06,,,1.31,,2013-01-03 04:22:00,
2013-01-02 18:32:00,69.0,66.0,30.01,ENE,65,8.0,18.0,90,0.06,,,1.32,,2013-01-03 04:32:00,
2013-01-02 18:42:00,69.0,66.0,30.01,ENE,65,8.0,18.0,90,0.06,,,1.32,,2013-01-03 04:42:00,
2013-01-02 18:52:00,69.0,66.0,30.01,NE,47,11.0,27.0,90,0.05,,,1.33,,2013-01-03 04:52:00,
2013-01-02 19:03:00,69.0,66.0,30.01,ENE,67,13.0,22.0,89,0.04,,,1.34,,2013-01-03 05:03:00,
2013-01-02 19:12:00,69.0,66.0,30.01,NE,38,9.0,21.0,89,0.03,,,1.20,,2013-01-03 05:12:00,
2013-01-02 19:22:00,69.0,66.0,30.01,NE,38,9.0,21.0,89,0.03,,,1.20,,2013-01-03 05:22:00,
2013-01-02 19:33:00,69.0,66.0,30.02,NE,50,12.0,18.0,89,0.03,,,1.21,,2013-01-03 05:33:00,
2013-01-02 19:42:00,69.0,66.0,30.02,NE,50,12.0,18.0,89,0.03,,,1.21,,2013-01-03 05:42:00,
2013-01-02 19:52:00,69.0,66.0,30.04,NE,55,16.0,26.0,89,0.03,,,1.22,,2013-01-03 05:52:00,
2013-01-02 20:02:00,69.0,66.0,30.03,ENE,59,12.0,20.0,89,0.02,,,1.22,,2013-01-03 06:02:00,
2013-01-02 20:11:00,69.0,66.0,30.03,ENE,59,12.0,20.0,89,0.02,,,1.22,,2013-01-03 06:11:00,
2013-01-02 20:22:00,69.0,66.0,30.04,East,86,11.0,19.0,89,0.02,,,1.02,,2013-01-03 06:22:00,
2013-01-02 20:32:00,69.0,66.0,30.04,ESE,105,11.0,23.0,89,0.01,,,1.02,,2013-01-03 06:32:00,
2013-01-02 20:42:00,69.0,66.0,30.04,ESE,105,11.0,23.0,89,0.01,,,1.02,,2013-01-03 06:42:00,
2013-01-02 20:52:00,69.0,66.0,30.04,East,80,12.0,21.0,90,0.02,,,1.04,,2013-01-03 06:52:00,
2013-01-02 21:02:00,69.0,66.0,30.05,NE,55,12.0,19.0,90,0.04,,,1.06,,2013-01-03 07:02:00,
2013-01-02 21:11:00,69.0,66.0,30.05,NE,55,12.0,19.0,90,0.04,,,1.06,,2013-01-03 07:11:00,
2013-01-02 21:22:00,69.0,66.0,30.05,NE,55,12.0,19.0,90,0.04,,,1.06,,2013-01-03 07:22:00,
2013-01-02 21:32:00,69.0,66.0,30.05,NE,55,12.0,19.0,90,0.04,,,1.06,,2013-01-03 07:32:00,
2013-01-02 21:42:00,69.0,66.0,30.05,NE,55,12.0,19.0,90,0.04,,,1.06,,2013-01-03 07:42:00,